Location: Asheville, NC
(35.6000°N, 82.5500°W)
Time: 22:44:50
(UTC-04:00)

UWE-3 - Pass Details

Date: 16 February 2018
Orbit: 587 x 683 km, 97.6° (Epoch: 20 May)

Event Time Altitude Azimuth Distance (km) Brightness Sun altitude
Rises 19:17:07 0° 165° (SSE) 3,022 ? -13.6°
Reaches altitude 10° 19:19:20 10° 165° (SSE) 2,115 ? -14.1°
Maximum altitude 19:24:00 86° 77° (ENE) 688 ? -15.0°
Drops below altitude 10° 19:28:39 10° 349° (N) 2,119 ? -16.0°
Sets 19:30:53 0° 349° (N) 3,030 ? -16.4°
